Погода в Глухониколаевке

Россия / Омская область     55°17′12″N   75°01′43″E
темп.,
°C
ветер,
м/с
пор.,
м/с
влажн.,
%
обл.,
%
осадки,
мм/ч
давл.,
гПа
погр.,
м
23 апреля, пт
пт2300:000юв33630 0.0 104536
03:000ююв23665 0.0 104646
06:000ююв22645 0.0 104630
09:00+4ююв45474 0.0 1046657
12:00+6ю34391 0.0 10451424
15:00+8ююв33350 0.0 10441575
18:00+8ююв34360 0.0 10421493
21:00+4юв48581 0.0 1042163
24 апреля, сб
сб2400:00+2ююв356391 0.0 104173
03:00+1ююв347093 0.0 104053
06:00+1ююв3472100 0.0 103971
09:00+5ююв355493 0.0 1038437
12:00+8ю4540100 0.0 10361428
15:00+10ююз4535100 0.0 10341723
18:00+9ю4536100 0.0 10321570
21:00+6ююв3450100 0.0 103256
25 апреля, вс
вс2500:00+5юв3760100 0.0 1031119
03:00+4юв4964100 0.0 1030192
06:00+3юв41065100 0.0 1029212
09:00+6ююв51052100 0.0 1028474
12:00+9ююв7937100 0.0 10271152
15:00+11юв7833100 0.0 10251388
18:00+11юв693796 0.0 10241480
21:00+8вюв7144775 0.0 1023378
26 апреля, пн
пн2600:00+7юв71747100 0.0 1022454
03:00+7юв7154998 0.0 1021446
06:00+6ююв6125494 0.0 1020349
09:00+7ююв5958100 0.0 1020292
12:00+12юз7862100 0.1 10191546
15:00+16юз61042100 0.4 10172542
18:00+15зюз610345 0.4 10172463
21:00+11з5123993 0.0 1018280
27 апреля, вт
вт2700:00+9з61345100 0.0 1019358
03:00+6з41159100 0.0 1020241
06:00+5з346891 0.0 102155
09:00+9юз3452100 0.0 1020351
12:00+7ююз3467100 0.4 1020747
15:00+5вюв4990100 3.8 1017537
18:00+6юв5994100 8.4 1013300
21:00+7юв4898100 2.3 1011211